Theta_e
348 348 346 344 342 339 338 337 337 337 336 335 333 332 331 331 335 340 340 338 338 339 340 341 341 342 343 343 344 343 344 343 343 342 342 343 338 329 324 327 330 330
347 347 347 346 344 342 340 337 336 336 334 332 331 330 330 332 336 339 340 340 338 338 339 340 341 342 342 343 343 343 343 342 342 342 342 342 342 338 331 326 325 326
348 348 348 346 344 342 340 339 337 334 333 331 330 331 333 334 336 338 340 341 339 337 339 340 340 341 342 342 342 342 343 342 341 341 341 341 342 342 341 335 329 324
348 348 347 345 344 342 340 339 337 334 333 332 330 331 333 335 336 338 338 340 340 340 341 340 339 339 340 342 343 342 343 342 342 341 341 341 340 341 342 342 338 331
348 346 345 344 343 342 341 339 336 334 333 331 331 332 334 335 336 337 337 337 338 339 340 341 340 339 339 340 342 342 342 342 342 342 341 341 340 340 340 341 341 339
349 347 346 345 344 343 341 338 335 334 332 330 332 333 334 335 336 337 337 336 335 335 337 340 341 341 339 339 341 341 341 341 340 341 341 341 341 341 340 340 340 340
348 347 346 345 345 345 343 339 335 334 332 331 332 333 334 335 335 336 335 334 334 333 335 338 340 340 339 338 339 340 340 340 340 340 340 340 341 341 340 339 338 337
346 346 346 345 345 345 343 340 336 334 332 331 331 332 333 334 334 334 333 334 334 334 334 335 337 338 338 337 338 338 339 339 339 339 338 338 339 339 339 338 338 336
346 345 344 344 345 344 343 340 337 335 334 332 330 330 332 332 332 331 331 333 334 335 335 335 335 335 336 337 336 336 338 338 338 338 338 338 338 337 337 338 337 337
348 347 345 345 345 343 342 340 338 337 335 333 331 330 331 331 331 332 332 333 333 335 335 335 335 334 334 335 335 335 336 336 336 337 338 338 338 337 337 337 337 337
350 349 347 345 344 343 342 341 340 339 337 335 333 331 331 330 331 332 333 334 333 333 334 335 335 334 334 334 335 335 335 334 335 336 337 337 338 337 337 337 337 337
351 349 346 345 344 342 342 341 341 340 338 337 335 334 332 331 331 331 332 332 333 332 333 333 333 334 334 334 334 334 335 336 336 336 336 337 337 337 337 337 337 336
351 349 345 343 342 341 341 341 340 339 338 337 335 335 334 332 332 331 331 331 332 332 332 332 333 334 334 334 334 335 336 336 336 336 337 337 337 337 337 337 337 336
352 350 348 344 342 341 341 340 340 340 339 337 336 335 335 334 332 332 331 331 332 332 332 333 334 335 335 336 336 336 337 337 336 336 336 336 336 336 336 336 336 336
354 353 350 347 345 343 342 341 341 340 339 338 337 336 335 335 334 333 333 333 333 333 333 335 337 337 336 336 336 336 336 337 336 336 336 336 335 334 335 336 335 335
356 354 352 351 348 346 344 343 342 342 341 340 338 336 335 335 335 336 336 335 334 334 335 337 337 337 335 335 336 336 336 336 336 337 337 337 337 336 336 336 335 334
357 356 355 353 351 348 346 344 343 344 344 342 339 338 337 337 337 337 337 337 336 335 335 337 337 336 334 335 336 335 337 338 337 337 338 339 340 340 338 337 336 336
359 358 356 355 354 351 349 346 346 346 346 344 343 341 339 338 338 338 338 338 337 337 337 337 336 335 335 335 335 336 338 340 341 340 340 341 341 341 340 339 338 338
360 360 359 358 356 355 353 351 349 348 347 346 344 343 343 341 340 339 339 339 339 338 337 337 336 335 335 336 336 337 339 342 344 344 344 343 343 344 342 341 341 340
362 362 361 360 360 358 356 354 352 350 348 347 348 347 346 344 341 341 341 341 340 339 337 337 337 336 336 337 337 337 339 342 345 346 347 347 346 346 345 345 343 343
363 363 363 363 362 361 359 357 354 352 350 349 349 349 347 344 343 342 342 341 341 340 339 339 337 337 338 339 339 339 341 343 346 348 349 349 348 348 347 347 346 345
364 364 364 364 364 363 362 359 357 355 351 350 350 349 348 346 345 344 342 343 342 342 342 340 337 337 339 339 340 343 345 347 348 350 351 351 351 351 349 349 348 348
364 365 365 365 364 364 363 362 360 358 355 353 351 350 349 347 345 344 343 344 344 344 344 341 337 337 340 341 342 346 348 351 352 352 353 353 353 353 352 352 352 352
364 365 365 365 365 365 364 363 362 360 358 356 353 351 349 347 346 346 345 346 346 345 345 344 341 341 343 344 346 348 350 353 353 354 354 355 354 354 354 354 355 355
365 365 364 365 364 364 364 363 362 362 360 358 355 353 350 348 349 350 350 347 347 347 347 348 348 348 349 350 351 353 354 355 356 356 356 356 356 356 356 357 357 358
365 365 365 364 364 364 364 363 363 362 362 359 358 355 352 351 351 351 352 351 350 351 351 352 353 353 354 355 355 356 357 357 358 358 357 357 358 357 357 357 358 359
Wind_Speed
41 41 40 39 38 38 36 34 33 32 32 31 29 28 27 25 22 21 20 21 22 23 22 21 20 19 19 18 17 16 15 14 12 10 10 10 9 10 11 12 12 12
41 40 40 38 39 39 38 35 33 32 31 30 29 27 26 25 24 21 20 20 22 23 22 22 21 20 20 19 19 18 17 17 15 13 13 12 11 10 10 12 12 12
41 41 40 39 39 40 40 37 35 33 31 30 29 28 26 26 25 23 21 20 21 21 22 23 22 21 21 20 20 19 19 18 17 15 15 14 13 11 10 11 13 14
42 42 41 40 39 39 40 39 37 35 33 32 31 30 28 26 25 24 23 22 21 20 20 22 23 23 22 22 22 21 20 19 18 17 17 16 15 14 12 12 13 14
43 42 42 41 39 39 39 40 39 36 34 33 32 32 30 28 26 25 25 23 22 21 21 21 22 23 23 23 23 22 21 20 19 18 18 18 17 16 15 14 14 13
44 43 43 42 40 39 39 39 38 37 35 34 34 33 32 30 28 27 26 25 24 23 23 23 23 23 24 24 25 24 23 22 21 20 20 19 18 18 17 17 16 15
44 43 43 43 42 40 40 39 38 37 36 35 35 34 33 32 30 29 27 26 25 25 25 25 25 24 24 25 25 26 25 24 23 22 22 21 20 20 20 19 19 18
43 43 43 43 42 42 41 40 39 38 37 36 36 35 34 33 32 31 29 28 27 27 27 27 27 26 25 25 25 26 26 26 25 25 24 24 23 23 23 22 22 21
44 43 43 43 43 43 42 41 41 39 38 37 36 35 35 35 34 33 31 30 29 28 28 28 28 28 27 27 26 26 27 27 27 27 26 25 25 25 25 24 24 23
46 45 44 44 44 44 43 42 42 40 39 38 36 36 36 36 35 34 33 33 32 31 29 29 29 29 28 28 28 28 28 27 27 27 28 27 26 26 25 26 26 25
46 46 46 46 45 45 44 43 43 42 41 40 38 37 36 36 36 35 35 35 34 33 32 31 30 29 29 29 28 28 28 28 28 28 28 28 28 27 27 27 27 27
46 45 45 45 45 45 44 43 43 43 42 42 40 39 37 37 36 36 36 35 35 34 34 33 32 31 30 30 29 28 28 28 29 29 29 29 29 29 29 28 28 28
45 44 43 44 44 44 44 44 43 43 43 42 41 41 40 38 37 37 36 36 35 34 34 34 34 33 32 32 31 30 30 29 29 30 30 30 30 30 30 30 30 29
45 43 42 42 43 44 44 44 44 44 43 42 41 42 42 40 39 37 37 36 36 35 35 35 35 35 34 34 33 32 32 32 31 31 31 31 31 31 31 32 32 31
45 43 42 42 43 44 45 45 45 44 43 43 42 42 42 41 40 39 38 38 37 37 36 36 37 37 36 35 35 34 34 34 33 33 33 33 32 33 33 33 34 33
45 44 43 43 43 44 45 46 46 45 45 44 43 43 42 42 41 41 41 40 39 38 38 38 39 38 37 36 36 35 35 35 35 35 35 35 35 35 34 34 35 35
45 45 44 44 44 44 45 46 46 46 46 46 45 44 43 42 42 43 42 42 41 40 40 40 40 39 38 37 37 36 37 37 36 36 37 37 37 37 37 36 36 36
44 44 45 45 45 45 45 46 46 47 47 47 47 46 44 43 43 43 43 42 42 42 41 41 41 39 38 38 38 38 38 38 38 38 38 39 39 39 39 38 38 38
43 43 44 45 45 46 46 46 47 48 48 48 48 47 45 45 44 44 44 43 43 43 42 42 41 40 39 39 39 38 38 39 40 40 40 40 40 40 40 39 39 39
41 41 41 42 42 44 45 46 47 48 48 48 47 47 47 46 46 45 45 45 44 43 43 43 42 40 40 39 39 38 37 38 39 40 40 40 40 40 40 40 40 40
41 40 39 39 39 41 43 45 46 47 48 48 47 47 48 47 46 46 46 46 45 44 43 43 42 40 39 38 37 36 35 36 37 39 40 41 40 40 40 40 40 40
41 40 39 38 37 39 41 42 44 45 46 47 47 47 47 47 47 47 46 46 46 45 44 43 41 39 39 37 36 35 34 35 36 37 38 39 40 39 39 39 39 40
41 40 39 38 38 39 40 40 41 42 43 45 46 47 47 47 47 47 46 46 46 46 45 44 40 38 38 37 35 34 34 34 35 36 37 38 38 38 38 39 39 40
41 41 40 39 39 39 39 38 39 40 41 42 44 46 46 47 46 46 46 46 46 46 46 45 42 40 39 38 36 35 35 35 35 35 37 38 38 38 38 39 40 40
41 41 40 40 39 38 38 37 37 38 38 40 41 43 44 45 46 47 47 46 46 46 46 46 44 43 42 41 39 37 36 36 35 36 38 39 38 38 39 40 40 41
42 41 41 40 40 38 37 36 36 36 37 39 40 41 42 43 45 46 47 47 46 46 46 46 45 43 42 41 40 39 38 37 37 38 39 39 38 39 40 40 40 41
Wind_Direction
223 222 222 223 222 222 221 221 221 220 220 221 224 227 226 224 219 216 216 215 214 215 217 217 216 216 216 219 224 227 230 233 231 227 225 226 229 228 226 226 226 227
222 222 222 223 223 221 221 223 223 224 224 225 227 227 225 224 221 219 218 216 215 214 215 218 219 219 220 221 224 227 230 232 233 232 226 223 225 231 234 234 234 233
223 223 224 225 225 223 222 223 225 226 227 228 227 225 223 223 223 222 220 218 218 216 214 216 219 221 222 224 226 228 230 232 233 235 233 228 226 230 236 239 242 239
224 225 226 227 226 225 223 223 225 226 227 227 226 225 222 222 223 225 224 221 220 219 218 217 217 220 223 225 228 230 231 234 235 236 238 237 235 234 234 237 243 245
225 226 227 228 227 226 224 224 225 226 225 224 224 223 222 222 223 225 227 226 224 224 224 222 221 221 223 225 228 230 232 234 235 235 237 238 239 239 237 237 240 245
225 226 227 228 227 226 225 225 225 224 224 223 222 222 222 222 224 225 227 228 228 228 227 226 226 224 223 225 227 231 233 234 237 238 238 238 239 241 241 241 242 244
226 226 227 228 228 227 226 225 225 224 223 222 220 221 221 222 224 225 227 229 230 230 229 228 229 227 226 225 227 230 233 235 238 240 242 243 242 243 243 244 246 246
227 227 227 228 228 228 227 226 225 224 224 222 220 221 222 223 225 226 228 230 231 232 231 230 231 231 231 229 228 230 233 235 238 240 244 246 247 247 247 247 249 250
226 227 228 229 229 229 228 226 226 225 225 224 222 221 222 224 226 228 229 230 231 232 232 232 233 234 234 234 232 231 232 235 237 239 243 247 249 249 249 251 252 252
225 226 227 228 229 229 228 227 226 226 226 226 224 223 223 224 226 228 229 230 231 231 233 233 234 235 236 236 235 233 232 234 237 239 243 246 248 250 250 252 253 254
225 226 227 228 229 230 229 228 227 227 227 227 227 226 225 226 226 227 229 230 230 231 233 235 235 236 237 238 238 236 235 235 236 239 243 246 248 250 252 252 253 254
225 227 229 230 230 230 230 230 229 228 228 227 228 228 228 228 228 228 229 230 231 232 234 236 238 238 239 241 242 241 240 238 237 238 242 245 247 249 251 252 253 255
226 228 230 231 232 232 232 231 230 230 229 228 229 229 230 230 230 230 231 232 233 235 236 238 239 240 241 243 243 244 245 244 243 241 242 244 247 248 249 251 253 255
228 229 231 232 233 234 233 233 232 231 231 230 230 230 231 232 232 233 233 234 235 237 238 240 240 241 242 243 244 244 245 246 247 246 245 245 247 248 249 250 252 255
228 229 231 232 233 233 234 233 233 233 233 232 232 231 232 232 234 235 235 236 237 238 239 240 241 242 244 244 245 245 246 247 249 249 249 249 250 251 252 253 254 256
229 230 231 232 232 233 234 234 233 233 233 234 234 234 234 234 234 235 236 237 238 239 240 240 241 243 245 246 247 247 247 249 250 252 253 253 253 254 255 256 257 259
230 231 231 232 233 234 235 235 234 233 233 234 235 235 235 235 235 235 236 238 239 241 241 242 242 244 246 247 248 249 249 250 251 253 255 255 256 257 258 260 261 262
231 231 232 233 234 234 235 235 234 233 233 233 235 235 236 237 237 237 237 238 240 241 243 244 245 247 249 249 250 250 250 250 252 254 256 257 258 259 261 263 264 265
232 233 233 233 234 235 235 235 234 234 234 233 234 235 236 237 238 238 238 238 239 242 244 246 248 250 251 251 252 253 253 252 252 254 256 258 259 261 263 265 266 267
233 233 234 235 236 236 235 234 235 235 235 234 234 234 235 237 239 239 240 240 240 242 245 247 250 251 252 252 253 254 255 254 254 255 257 259 261 262 264 265 267 268
232 233 234 236 236 236 236 236 236 237 236 235 234 234 236 238 239 240 241 241 242 243 246 248 251 252 253 254 254 255 255 255 256 256 257 259 261 263 264 266 268 269
233 233 234 236 236 236 236 237 238 238 238 237 235 235 237 238 239 240 242 242 243 244 245 248 252 253 253 254 255 255 255 256 256 257 258 259 261 263 264 267 268 269
233 234 235 236 236 236 237 238 239 240 239 238 236 236 237 238 239 241 242 243 244 244 245 248 252 253 253 255 256 256 255 256 257 258 259 260 262 264 266 267 269 270
234 235 236 237 237 238 239 240 241 241 240 239 238 238 238 239 240 241 242 243 244 245 246 249 252 253 253 254 256 256 256 257 258 260 261 262 264 266 267 269 270 271
235 236 236 237 238 240 242 243 243 243 242 241 241 241 241 241 240 240 242 244 245 246 247 249 250 252 252 253 254 254 255 256 257 259 260 262 264 266 267 269 270 272
235 236 237 238 239 241 243 244 245 244 243 242 242 243 243 243 241 241 242 244 246 246 247 248 249 250 251 253 254 254 254 254 255 256 258 261 264 266 268 270 272 273